Overview Statistics Trail Chart Weather Telemetry Raw packets
 

This is the latest recevied weather packets stored in our database for station/object KE6JJJ-1. If no packets are shown the sender has not sent any weather packets the latest 10 day(s).

<< 11 12 13 14 15 16 17 >>
Time Temp. Humidity Pressure Rain* Wind** Luminosity Snow
1788084304 14.44° C 86% 1013.1 hPa 0 mm - 0 W/m² -
1788080703 14.44° C 86% 1013 hPa 0 mm - 0 W/m² -
1788077103 14.44° C 84% 1012.9 hPa 0 mm - 0 W/m² -
1788073503 15° C 83% 1013.2 hPa 0 mm - 0 W/m² -
1788069903 15° C 84% 1013 hPa 0 mm - 0 W/m² -
1788068103 15.56° C 84% 1013.2 hPa 0 mm - 0 W/m² -
1788066303 15.56° C 84% 1013.2 hPa 0 mm - 0 W/m² -
1788064503 15.56° C 83% 1013.2 hPa 0 mm - 0 W/m² -
1788062704 16.11° C 82% 1013 hPa 0 mm - 0 W/m² -
1788059104 16.67° C 78% 1012.7 hPa 0 mm - 0 W/m² -
1788055504 17.78° C 74% 1012.8 hPa 0 mm - 62 W/m² -
1788053707 18.89° C 72% 1012.9 hPa 0 mm - 153 W/m² -
1788051903 18.89° C 73% 1013.1 hPa 0 mm - 259 W/m² -
1788050104 18.89° C 73% 1013.1 hPa 0 mm - 362 W/m² -
1788048303 19.44° C 73% 1013.4 hPa 0 mm - 457 W/m² -
1788046503 19.44° C 73% 1013.3 hPa 0 mm - 543 W/m² -
1788044703 20° C 72% 1013.2 hPa 0 mm - 624 W/m² -
1788042910 20° C 72% 1013.9 hPa 0 mm - 696 W/m² -
1788041104 20° C 73% 1014.4 hPa 0 mm - 751 W/m² -
1788037503 19.44° C 73% 1015 hPa 0 mm - 833 W/m² -
1788035703 19.44° C 72% 1015.1 hPa 0 mm - 849 W/m² -
1788033903 19.44° C 73% 1015.1 hPa 0 mm - 856 W/m² -
1788032103 18.89° C 74% 1015.3 hPa 0 mm - 849 W/m² -
1788030306 18.89° C 73% 1015.7 hPa 0 mm - 823 W/m² -
1788028506 18.89° C 74% 1016.1 hPa 0 mm - 782 W/m² -

* Rain latest hour (hover to see other rain measurements)
** Current wind speed in m/s (hover to see current wind gust speed)